Regional Weather Roundup
Issued by NWS Northern Indiana

Home | Current Version | Previous Version | Graphics & Text | Print | Product List | Glossary On
Versions: 1 2 3 4 5 6 7 8 9 10 11 12 13 14 15 16 17 18 19 20 21 22 23 24 25 26 27 28 29 30 31 32 33 34 35 36 37 38 39 40 41 42 43 44 45 46 47 48 49 50
000
ASUS43 KIWX 240100
RWRIWX

KIWX WEATHER ROUNDUP
NATIONAL WEATHER SERVICE NORTHERN INDIANA
800 PM EST MON JAN 23 2017

NOTE: "FAIR" INDICATES FEW OR NO CLOUDS BELOW 12,000 FEET WITH NO
SIGNIFICANT WEATHER AND/OR OBSTRUCTIONS TO VISIBILITY.

* THESE STATIONS ARE NOT UNDER NWS QUALITY CONTROL. THEY ALSO MAY NOT
  REPORT WEATHER SUCH AS PRECIPITATION OR FOG.

INZ001>027-240200-
NORTHERN INDIANA

CITY           SKY/WX    TMP DP  RH WIND       PRES   REMARKS
GARY*          CLOUDY    41  34  75 N8        29.78R
SOUTH BEND     CLOUDY    38  37  97 NW13      29.76R
ELKHART*       CLOUDY    39  37  93 NW10      29.74R FOG
GOSHEN         CLOUDY    40  37  89 NW10      29.73R FOG
FORT WAYNE     LGT RAIN  43  41  93 NW6       29.71R
PERU/GRISSOM   DRIZZLE   39  39 100 NW12      29.72R FOG

$$
INZ028>050-240200-
CENTRAL INDIANA

CITY           SKY/WX    TMP DP  RH WIND       PRES   REMARKS
LAFAYETTE      CLOUDY    38  37  97 N8        29.76R
KOKOMO*        CLOUDY    39  38  96 NW14      29.74R FOG
MUNCIE*        LGT RAIN  43  41  93 NW13      29.70R
INDIANAPOLIS   DRIZZLE   40  38  93 N12       29.74R FOG

$$
MIZ043>046-050>051-056>058-064>065-071>073-077>080-240200-
SOUTHWEST LOWER MICHIGAN

CITY           SKY/WX    TMP DP  RH WIND       PRES   REMARKS
BATTLE CREEK   LGT RAIN  40  40 100 N6        29.72R
BENTON HARBOR  CLOUDY    39  36  89 NW6       29.77R
COLDWATER*     MIX PCPN  40  40 100 N3        29.71R
HILLSDALE*     RAIN      37  37 100 CALM      29.69R
HOLLAND        CLOUDY    39  37  92 NW6       29.75R
GRAND RAPIDS   LGT RAIN  40  38  93 N5        29.73R FOG
KALAMAZOO      LGT RAIN  41  38  89 N8        29.73R FOG
STURGIS*       DRIZZLE   39  39 100 N7        29.71R
THREE RIVERS*  LGT RAIN  41  40  97 N6        29.73R

$$
OHZ001>008-015>018-024>025-240200-
NORTHWEST OHIO

CITY           SKY/WX    TMP DP  RH WIND       PRES   REMARKS
DEFIANCE       LGT RAIN  42  41  96 N6        29.70R
FINDLAY        LGT RAIN  41  37  86 NE15      29.66R
TOLEDO EXPRESS LGT RAIN  42  42 100 NE7       29.69R FOG
TOLEDO METCALF LGT RAIN  43  42  97 NE7       29.70R FOG
LIMA           LGT RAIN  39  39 100 N10       29.66R FOG

$$
AND FOR LAKE MICHIGAN COASTAL AND OPEN LAKE BUOY OBSERVATIONS

STATION/POSITION TEMP    WIND        PRES    VSBY  WAVE
                 AIR SEA DIR/SP/G                  HT/PER
                 (F)     (DEG/KT/KT) (MB)    (MI)  (FT/S)
CALUMET HARBOR    37     340/  6/  8 1007.8R
MICHIGAN CITY     36     330/ 10/ 10   N/A
BURNS HARBOR      36      10/  6/  8 1009.1R

$$
&&




USA.gov is the U.S. government's official web portal to all federal, state and local government web resources and services.